RH
85 85 83 82 88 94 96 100 100 99 92 99 99 99 98 74 75 67 82 96 92 98 98 99 98 98 81 64 82 98 97 98 97 81 82 85 88 66 53 95 96 96 97 98
84 83 86 84 87 94 100 99 99 100 98 99 99 97 93 81 85 85 94 95 91 92 99 99 98 96 86 78 95 99 98 97 96 97 90 82 78 82 79 76 95 94 92 98
85 85 87 89 92 90 100 99 100 100 100 100 99 98 97 94 86 86 75 90 95 100 99 97 99 92 82 80 83 96 100 98 96 84 95 96 94 95 88 78 91 91 97 96
99 96 95 94 87 86 99 100 98 84 98 97 98 100 99 99 97 92 92 100 98 93 99 99 98 88 95 95 88 98 99 97 95 84 93 93 94 95 94 95 95 98 99 97
100 100 100 100 97 93 100 100 100 100 100 98 97 98 99 99 97 93 97 99 93 99 98 90 96 94 98 99 95 97 98 96 97 97 94 93 95 93 95 95 96 96 96 97
100 100 99 99 100 100 100 99 99 99 98 100 99 96 94 97 93 99 94 95 98 99 95 98 98 97 96 96 96 96 97 97 96 95 91 95 94 97 95 94 94 96 97 97
100 100 100 100 100 100 100 100 99 100 96 100 98 98 98 98 98 98 98 97 98 97 98 98 97 96 96 93 93 93 96 96 96 96 96 97 97 88 81 92 96 95 96 96
100 100 100 100 100 99 99 100 100 100 99 97 95 94 95 96 97 97 97 97 98 98 98 97 96 94 95 90 63 81 91 96 96 96 96 98 92 90 94 96 98 95 95 94
100 100 100 100 100 95 99 100 100 99 100 100 96 95 95 95 95 96 96 96 96 98 96 96 96 95 95 95 88 59 72 84 93 95 97 99 96 90 93 94 97 94 95 94
100 100 100 100 99 99 96 93 99 91 96 95 96 96 96 95 95 95 94 94 90 94 96 95 94 95 95 96 95 94 90 94 97 95 100 99 95 87 84 99 100 91 86 90
98 99 100 100 100 83 80 99 96 86 96 95 94 95 95 94 94 95 93 93 84 89 94 94 95 94 96 93 96 98 94 98 97 92 99 99 91 75 86 97 84 86 86 78
85 93 95 97 96 93 78 92 84 66 85 95 94 71 62 90 96 95 93 96 95 94 95 94 88 91 93 96 98 82 92 98 98 94 99 96 94 93 93 88 92 87 88 74
72 68 82 92 89 87 75 72 69 54 74 69 64 69 43 49 67 95 98 92 95 93 96 96 95 94 90 93 96 76 87 88 95 92 94 76 92 71 73 74 92 89 71 77
82 79 72 67 72 69 60 55 47 45 64 74 64 34 37 46 56 65 71 78 67 77 90 94 94 92 73 95 80 82 96 84 93 90 86 74 81 72 85 82 76 72 80 76
79 86 91 87 65 32 19 25 32 35 50 76 82 36 28 38 42 45 46 54 86 95 89 96 100 97 88 98 91 100 100 99 100 100 84 97 89 90 79 96 89 84 90 88
57 63 65 50 53 50 46 59 20 44 44 79 66 50 40 32 37 45 61 57 88 95 96 100 100 96 86 90 100 90 100 100 92 98 96 97 92 85 80 96 95 84 92 82
39 46 57 26 22 19 69 76 54 40 39 79 83 72 46 45 45 61 66 64 94 91 100 96 97 95 82 95 100 74 87 95 100 98 100 94 90 94 83 94 85 76 81 80
16 21 30 21 25 25 43 50 30 35 36 60 90 81 60 52 68 82 67 92 91 85 100 94 95 90 92 91 79 84 96 97 100 89 88 92 89 96 89 78 78 93 93 88
19 23 26 21 25 35 47 67 42 27 41 90 93 100 88 62 65 96 87 95 89 85 93 91 85 92 84 73 79 99 99 100 99 96 98 93 97 93 88 92 92 97 93 86
18 20 20 56 35 54 40 34 68 72 74 85 98 84 94 84 80 90 90 93 97 91 90 84 94 100 91 89 92 99 98 94 97 100 90 84 86 87 87 93 94 90 95 86
17 29 40 36 37 42 60 85 84 84 94 91 97 93 99 79 95 100 97 98 98 96 88 89 100 100 98 92 100 90 83 84 83 90 83 83 89 92 90 89 87 85 87 88
23 25 37 35 58 75 65 94 85 94 100 97 100 98 88 83 87 98 92 99 87 84 92 89 93 90 90 96 96 92 77 75 79 79 84 84 86 87 89 92 91 88 88 90
28 38 73 73 81 78 98 100 84 99 99 99 98 96 92 87 86 98 94 71 86 92 90 84 86 96 96 95 95 90 79 80 84 87 87 87 90 89 89 92 93 93 96 93
82 77 79 89 96 99 100 100 100 92 99 97 98 100 98 95 96 100 80 86 86 78 74 79 88 93 95 93 90 98 92 90 91 92 94 94 94 94 93 92 93 96 98 97
90 83 100 91 93 96 96 97 98 90 95 100 97 96 97 99 89 96 81 75 81 88 74 82 90 92 93 92 92 95 96 93 97 96 100 96 98 100 99 96 98 100 100 94
78 85 88 94 96 95 100 100 99 94 99 98 97 100 88 91 100 79 90 95 91 84 91 90 92 91 88 91 88 89 89 90 95 97 98 99 100 100 100 100 100 93 91 96
80 88 94 96 98 98 97 97 96 83 99 100 100 88 99 92 92 95 95 96 94 93 89 82 88 94 93 92 87 86 82 86 92 97 98 100 96 97 100 99 93 92 93 94
Wind_Speed
22 21 19 18 17 12 6 3 3 3 14 2 3 3 5 4 3 5 4 3 9 5 5 5 5 7 6 5 4 3 6 3 5 10 1 1 1 9 13 5 6 4 2 3
22 21 20 19 17 11 4 2 2 3 2 4 3 4 6 5 5 5 4 4 6 5 4 6 9 6 3 3 4 3 6 4 3 3 2 3 3 3 4 5 2 11 5 3
21 19 18 16 14 11 11 2 2 1 1 1 2 4 8 8 8 11 6 6 4 4 6 10 5 7 4 3 4 3 6 4 6 12 1 3 3 8 7 3 5 4 2 6
15 15 15 14 11 9 7 3 4 4 3 5 9 7 4 6 6 6 6 4 13 9 5 5 9 9 4 2 3 3 4 5 6 11 7 10 8 10 16 5 5 3 6 7
15 13 12 13 14 16 9 2 2 0 1 1 9 10 4 10 9 6 9 14 11 12 11 11 8 11 4 1 3 2 2 3 2 2 15 15 15 20 9 14 9 9 8 9
19 18 15 15 15 14 8 10 6 3 5 4 5 7 8 8 4 9 13 11 11 11 9 3 2 4 6 4 3 3 3 2 1 2 12 7 8 15 12 11 11 3 7 4
23 19 16 16 13 9 9 5 3 4 10 6 5 7 6 5 4 5 2 6 3 3 5 2 6 6 7 13 14 11 4 3 2 1 4 3 5 9 12 11 6 6 5 2
27 21 16 17 14 14 9 7 2 2 2 4 6 13 5 6 6 6 3 4 4 5 3 3 4 3 3 7 11 16 14 3 2 1 4 7 4 8 4 2 6 8 6 6
27 26 18 17 14 14 3 12 3 2 3 6 6 4 5 3 4 4 3 4 10 4 2 3 4 2 4 4 9 12 12 14 6 4 4 3 2 9 3 3 4 9 6 6
26 30 22 14 16 11 7 16 9 11 5 6 5 4 3 5 3 3 3 7 8 7 2 1 4 3 4 6 6 9 7 5 9 7 4 3 5 12 3 2 4 13 10 8
25 31 31 17 15 15 14 17 6 9 5 5 9 6 6 5 4 3 5 2 5 5 4 3 4 5 4 5 4 4 6 5 4 4 3 1 10 4 3 4 7 9 9 9
27 27 33 35 24 16 28 19 29 30 12 4 9 14 15 6 5 3 5 3 4 3 1 4 4 5 4 5 3 5 4 2 2 2 3 0 4 8 3 2 6 7 7 11
25 34 30 25 27 29 33 26 14 16 6 7 6 5 19 23 14 3 1 3 3 4 2 3 3 7 2 3 4 3 4 4 2 5 2 11 2 1 7 10 7 8 10 12
4 6 22 25 26 27 25 23 15 9 7 4 3 15 14 27 23 17 7 1 7 4 3 4 4 4 4 2 4 3 2 3 5 5 4 13 2 11 9 12 9 12 14 13
25 11 6 5 8 23 33 35 34 21 8 4 2 1 24 26 32 33 30 23 5 3 4 4 2 2 4 2 3 2 1 3 2 4 6 5 10 7 11 4 9 12 12 13
30 35 22 3 0 1 4 4 22 22 9 4 3 1 13 24 23 29 25 18 5 3 3 1 2 2 3 3 1 5 5 3 5 4 5 6 10 10 9 4 7 19 13 18
16 17 20 38 32 24 14 3 13 12 6 3 3 3 7 17 10 8 7 14 3 3 1 3 2 3 3 3 1 7 6 5 5 5 1 6 3 7 16 18 22 23 22 21
9 12 11 12 11 14 20 27 13 6 13 9 3 3 4 16 4 4 10 3 3 6 2 2 2 2 2 2 7 6 6 8 5 8 10 10 17 17 15 18 19 10 8 15
7 7 9 5 10 7 7 9 14 30 15 4 3 3 3 12 4 1 4 2 3 2 2 2 2 2 2 6 6 5 6 4 8 8 6 9 6 9 8 9 8 7 9 14
6 5 5 4 7 13 6 3 4 5 9 5 2 1 3 3 3 3 2 2 1 3 3 1 3 3 4 6 7 7 8 8 6 6 11 10 12 10 10 8 13 13 14 19
3 6 2 6 8 5 7 4 5 4 5 4 2 2 2 3 2 2 1 2 1 3 3 2 2 3 4 6 7 12 15 15 14 12 15 14 12 9 11 13 16 17 18 19
8 10 7 7 9 5 8 3 4 6 1 4 2 3 1 3 2 2 3 2 3 1 1 3 4 4 6 6 7 8 12 12 14 15 15 17 16 18 18 18 19 20 20 22
8 9 6 5 6 12 7 8 5 5 4 3 3 4 2 3 0 1 3 5 2 0 4 2 4 4 4 6 5 7 11 13 14 14 16 17 18 18 17 19 20 21 20 21
6 6 9 4 5 2 2 3 3 4 2 4 5 3 2 2 4 1 4 3 3 4 5 3 3 5 5 5 6 2 6 12 13 15 17 17 17 18 19 18 19 20 21 23
5 5 4 3 3 3 3 2 2 3 2 2 3 2 1 2 3 2 2 6 4 3 3 3 5 9 4 4 3 5 8 12 14 17 17 19 20 19 19 21 21 21 21 21
5 6 3 2 2 3 2 1 3 1 2 1 1 1 4 4 1 5 1 2 3 3 3 7 8 9 9 5 10 14 17 18 18 20 20 19 17 18 21 24 20 20 21 21
5 2 1 2 2 4 3 2 2 3 1 1 2 5 3 3 3 3 2 3 3 8 10 8 9 9 10 14 16 17 18 19 20 20 19 19 22 22 20 16 20 21 21 22
Wind_Direction
306 302 301 301 295 295 265 234 245 149 155 154 214 199 201 245 244 235 225 263 246 243 271 274 236 241 222 112 148 228 194 248 236 218 297 345 181 216 192 216 201 220 205 123
301 301 295 295 287 272 221 232 127 168 139 230 211 230 250 255 247 200 221 238 223 175 228 274 230 267 265 167 177 218 169 224 271 265 359 9 229 279 288 222 54 212 192 140
302 302 300 292 282 271 241 152 237 131 163 335 236 257 261 252 221 238 217 226 201 203 235 219 264 263 257 163 210 111 173 223 218 262 227 127 2 15 320 246 235 228 13 95
317 306 300 293 269 263 238 190 233 180 198 220 213 207 214 213 256 224 197 243 212 202 249 237 240 267 281 158 251 201 222 252 218 256 99 91 74 13 13 44 338 31 44 86
337 324 306 289 269 264 243 247 209 285 304 292 198 213 226 250 237 211 245 230 211 220 244 236 270 285 231 101 346 235 246 267 354 301 110 100 68 28 59 46 31 87 79 69
1 349 323 304 294 267 224 203 200 191 203 200 222 231 240 236 217 212 227 244 227 222 244 27 43 86 76 52 35 329 282 274 196 243 143 158 38 11 66 71 42 37 53 9
6 352 344 343 334 326 289 277 154 196 252 217 264 10 321 329 307 300 45 27 353 9 343 105 79 78 82 66 39 20 324 312 242 213 176 208 138 34 82 84 57 69 92 18
8 2 356 349 344 335 277 267 311 207 206 340 48 3 1 329 350 16 27 36 341 289 260 239 185 170 161 86 59 26 11 309 288 135 51 126 34 3 322 347 71 40 22 357
15 8 356 355 348 350 286 42 5 16 312 30 311 320 15 2 344 343 32 34 328 319 263 233 233 139 10 55 348 13 21 29 51 48 92 124 337 319 311 155 178 15 0 343
20 16 17 17 15 38 103 43 59 79 87 7 348 34 344 338 344 295 26 340 348 2 325 14 20 71 41 37 27 354 354 6 34 27 87 86 345 312 335 230 351 347 343 340
29 29 26 36 33 51 81 47 46 104 106 35 28 22 26 349 356 4 325 312 15 351 44 42 38 47 62 90 40 8 33 344 22 359 49 75 336 5 57 318 309 326 352 341
38 40 43 50 46 67 90 68 78 94 81 137 98 64 31 12 304 291 316 56 4 12 30 50 69 54 50 33 53 1 42 2 353 58 35 243 62 112 161 263 303 319 326 326
50 49 48 50 61 68 74 87 82 74 94 82 53 350 6 19 14 320 351 52 329 14 326 86 85 76 12 76 38 21 355 14 30 340 349 349 181 37 13 355 325 332 325 319
356 26 42 54 66 70 75 61 59 80 91 89 317 34 29 32 56 60 41 301 32 13 36 69 70 94 38 51 134 88 249 10 314 287 335 336 316 350 339 330 332 326 320 318
44 43 41 75 61 71 70 63 57 65 103 140 215 325 21 32 49 51 56 53 44 26 40 52 61 59 75 26 76 19 277 214 113 248 245 216 282 293 310 294 318 314 307 311
52 51 50 59 152 98 56 40 39 41 48 90 60 270 8 13 26 32 32 27 40 64 92 136 14 259 91 75 78 249 260 229 185 253 234 245 265 287 285 272 279 298 286 301
48 48 52 53 66 79 60 82 309 352 44 82 60 17 11 356 14 19 13 32 53 81 97 38 104 10 71 93 137 268 275 260 256 245 268 313 290 277 292 288 295 305 298 299
51 52 53 49 46 66 49 37 37 48 89 48 68 332 32 10 355 350 7 13 24 19 145 10 44 345 68 48 248 274 274 292 281 259 238 250 280 293 288 297 298 294 290 289
54 55 39 50 30 33 356 352 31 56 63 91 63 41 299 351 12 357 342 40 51 288 57 2 59 319 82 238 256 274 272 229 270 287 276 284 270 276 286 278 291 282 293 299
54 49 42 17 2 328 334 30 22 26 24 42 84 245 315 2 345 335 19 13 66 52 277 320 72 251 259 248 236 249 265 262 273 292 308 312 313 310 307 301 288 293 289 308
46 49 79 354 349 17 37 44 44 353 30 17 319 107 305 352 39 302 83 211 329 55 282 90 335 296 250 249 254 271 286 287 286 267 278 293 285 292 304 307 307 307 306 307
78 105 70 26 27 29 67 16 9 45 9 331 350 307 234 295 97 57 336 103 31 302 270 65 338 253 244 256 263 272 293 296 302 307 293 303 302 304 303 302 305 307 306 307
61 47 47 26 329 36 50 346 330 349 351 358 337 323 309 315 316 23 50 49 258 346 34 238 227 253 268 263 259 272 302 308 302 305 307 305 301 304 303 302 302 304 305 307
59 46 21 63 355 13 196 203 231 270 273 326 317 276 315 303 2 203 59 250 56 19 14 281 255 253 263 268 253 259 293 301 304 302 305 306 305 306 311 307 305 305 303 307
64 49 38 45 231 248 234 224 314 261 303 355 334 294 41 321 33 39 5 11 349 199 259 260 298 314 275 280 272 274 288 296 296 301 301 306 307 306 307 312 310 304 303 307
67 44 38 304 44 299 324 251 265 272 288 294 107 314 32 7 125 28 284 96 257 269 255 297 306 306 307 278 288 293 300 302 298 300 302 302 300 303 304 311 308 314 312 305
51 334 224 171 248 232 258 189 259 299 39 351 53 42 258 299 2 325 205 236 253 291 299 300 297 294 298 297 296 299 303 302 302 301 301 298 314 315 311 305 317 318 314 314